Flag for Poland Weather past 2 weeks in Lidzbark Warmiński, Poland

Now
39 °F

Passing clouds.


Feels Like: 32 °F
Forecast: 29 / 48 °F
Wind: 9 mph from Southeast

Location: Ketrzyn

Current Time: Oct 25, 2014 at 2:44:05 PM

Latest Report: Oct 25, 2014 at 1:00 PM


Visibility: 16 mi

Pressure: 30.33 "Hg

Humidity: 56%

Dew point: 24 °F

Location of Lidzbark WarmińskiLocation

Historic Weather in Lidzbark Warmiński — Graph

°F

Lidzbark Warmiński temperature yesterday

Maximum temperature yesterday: 38 °F (at 3:00 PM)
Minimum temperature yesterday: 24 °F (at 8:00 AM)
Average temperature yesterday: 31 °F

Past Weeks' High & Low Weather Summary

 TemperatureHumidityPressure
High71 °F (Oct 10, 3:00 PM)100% (Oct 13, 7:00 AM)30.47 "Hg (Oct 13, 7:00 AM)
Low24 °F (Oct 24, 8:00 AM)35% (Oct 24, 3:00 PM)29.63 "Hg (Oct 22, 7:00 AM)
Average49 °F82%29.95 "Hg
* Reported Oct 10 1:00 PM — Oct 25 1:00 PM, Lidzbark Warmiński, Weather by CustomWeather, © 2014

Note: Actual official high and low records may vary slightly from our data, if they occured in-between our weather recording intervals... More about our weather records

Advertising

Lidzbark Warmiński weather history for previous 24 hours

 ConditionsComfort  
Time TempWeatherWind HumidityBarometerVisibility
1:00 PM
Oct 25
39 °FPassing clouds.9 mph56%30.33 "Hg16 mi
12:00 PM37 °FPassing clouds.7 mph56%30.36 "Hg14 mi
11:00 AM35 °FPassing clouds.8 mph57%30.37 "Hg16 mi
10:00 AM32 °FScattered clouds.8 mph58%30.39 "Hg17 mi
9:00 AM28 °FScattered clouds.8 mph60%30.40 "Hg17 mi
8:00 AM26 °FScattered clouds.7 mph64%30.40 "Hg17 mi
7:00 AM26 °FPassing clouds.7 mph57%30.40 "Hg22 mi
6:00 AM27 °FClear.6 mph55%30.42 "Hg22 mi
5:00 AM27 °FClear.6 mph55%30.42 "Hg22 mi
4:00 AM28 °FClear.6 mph51%30.42 "Hg25 mi
3:00 AM28 °FClear.6 mph49%30.43 "Hg25 mi
2:00 AM30 °FClear.8 mph46%30.43 "Hg25 mi
1:00 AM29 °FClear.6 mph50%30.45 "Hg25 mi
12:00 AM30 °FClear.6 mph51%30.45 "Hg28 mi
11:00 PM
Oct 24
29 °FClear.6 mph53%30.45 "Hg25 mi
10:00 PM30 °FClear.7 mph51%30.45 "Hg25 mi
9:00 PM31 °FClear.8 mph48%30.44 "Hg28 mi
8:00 PM31 °FPassing clouds.7 mph48%30.43 "Hg13 mi
7:00 PM33 °FPassing clouds.7 mph46%30.43 "Hg17 mi
6:00 PM33 °FPassing clouds.5 mph46%30.43 "Hg12 mi
5:00 PM36 °FPartly sunny.5 mph39%30.43 "Hg22 mi
4:00 PM38 °FScattered clouds.8 mph36%30.43 "Hg25 mi
3:00 PM38 °FScattered clouds.7 mph35%30.43 "Hg22 mi
2:00 PM38 °FScattered clouds.7 mph39%30.44 "Hg22 mi
Weather by CustomWeather, © 2014

See weather overviewHow to use our weather pages